Regional Weather Roundup
Issued by NWS

Home | Current Version | Previous Version | Graphics & Text | Print | Product List | Glossary On
Versions: 1 2 3 4 5 6 7 8 9 10 11 12 13 14 15 16 17 18 19 20 21 22 23 24 25 26 27 28 29 30 31 32 33 34 35 36 37 38 39 40 41 42 43 44 45 46 47 48 49 50
000
ASUS43 KLMK 230010
RWRKY
KENTUCKY REGIONAL WEATHER ROUNDUP
NATIONAL WEATHER SERVICE LOUISVILLE KY
800 PM EDT FRI SEP 22 2017

NOTE "FAIR" INDICATES FEW OR NO CLOUDS BELOW 12,000 FEET
WITH NO SIGNIFICANT WEATHER AND/OR OBSTRUCTIONS TO VISIBILITY.

KYZ001>023-026-027-061>063-070>075-230100-
WESTERN AND SOUTH CENTRAL KENTUCKY

CITY           SKY/WX    TMP DP  RH WIND       PRES   REMARKS
PADUCAH        CLEAR     82  67  60 SE3       29.98S
HENDERSON      CLEAR     80  68  66 SE5       30.01S
OWENSBORO      CLEAR     82  67  60 E5        30.01S
HOPKINSVILLE   NOT AVBL
BOWLING GREEN  CLEAR     82  68  62 NE3       30.01S
GLASGOW        CLEAR     76  68  75 CALM      30.03S
$$

KYZ024-025-028>034-038-045-046-053-230100-
NORTH CENTRAL KENTUCKY

CITY           SKY/WX    TMP DP  RH WIND       PRES   REMARKS
LOUISVILLE/SDF PTCLDY    85  65  51 E5        30.02S
LOUISVILLE/LOU CLEAR     84  67  56 E3        30.03S
FORT KNOX      CLEAR     74  70  85 N3        30.02S
$$

KYZ035>037-039>044-047>052-055>060-089>105-230100-
NORTHEAST KENTUCKY

CITY           SKY/WX    TMP DP  RH WIND       PRES   REMARKS
LEXINGTON      CLEAR     79  63  57 E7        30.06S
COVINGTON      PTCLDY    78  69  73 CALM      30.05S
FRANKFORT      CLEAR     78  66  66 E3        30.04S
$$

KYZ054-064>069-076>088-106>120-230100-
SOUTHEAST KENTUCKY

CITY           SKY/WX    TMP DP  RH WIND       PRES   REMARKS
JACKSON        CLOUDY    75  63  66 CALM      30.08S
LONDON         CLEAR     77  64  64 NE3       30.06S
SOMERSET       CLEAR     77  63  61 CALM      30.06S
MIDDLESBORO    PTCLDY    76  69  79 CALM      30.06S
MONTICELLO     PTCLDY    75  69  81 SE8       30.06R
$$





USA.gov is the U.S. government's official web portal to all federal, state and local government web resources and services.